Time,TemperatureF,DewpointF,PressureIn,WindDirection,WindDirectionDegrees,WindSpeedMPH,WindSpeedGustMPH,Humidity,HourlyPrecipIn,Conditions,Clouds,dailyrainin,SoftwareType,DateUTC
2013-06-30 00:02:00,69.1,68.5,29.78,West,270,2.0,4.0,98,0.00,,,0.00,meteohub,2013-06-30 07:02:00,
2013-06-30 00:07:00,69.1,68.5,29.78,West,270,4.0,4.0,98,0.00,,,0.00,meteohub,2013-06-30 07:07:00,
2013-06-30 00:12:00,68.9,68.4,29.77,West,270,4.0,4.0,98,0.00,,,0.00,meteohub,2013-06-30 07:12:00,
2013-06-30 00:17:00,68.9,68.4,29.77,West,270,4.0,4.0,98,0.00,,,0.00,meteohub,2013-06-30 07:17:00,
2013-06-30 00:22:00,68.9,68.5,29.76,West,270,4.0,4.0,99,0.00,,,0.00,meteohub,2013-06-30 07:22:00,
2013-06-30 00:27:00,68.9,68.5,29.77,NW,315,4.0,4.0,99,0.00,,,0.00,meteohub,2013-06-30 07:27:00,
2013-06-30 00:32:00,68.9,68.5,29.77,NW,315,2.0,5.0,99,0.00,,,0.00,meteohub,2013-06-30 07:32:00,
2013-06-30 00:37:00,68.7,68.4,29.76,NW,315,2.0,5.0,99,0.00,,,0.00,meteohub,2013-06-30 07:37:00,
2013-06-30 00:42:00,68.7,68.4,29.76,WNW,293,4.0,5.0,99,0.00,,,0.00,meteohub,2013-06-30 07:42:00,
2013-06-30 00:47:00,68.7,68.4,29.76,WNW,293,2.0,4.0,99,0.00,,,0.00,meteohub,2013-06-30 07:47:00,
2013-06-30 00:52:00,68.5,68.2,29.76,West,270,2.0,4.0,99,0.00,,,0.00,meteohub,2013-06-30 07:52:00,
2013-06-30 00:57:00,68.5,68.2,29.76,West,270,2.0,4.0,99,0.00,,,0.00,meteohub,2013-06-30 07:57:00,
2013-06-30 01:02:00,68.5,68.2,29.75,West,270,2.0,4.0,99,0.00,,,0.00,meteohub,2013-06-30 08:02:00,
2013-06-30 01:07:00,68.4,68.0,29.75,West,270,0.0,4.0,99,0.00,,,0.00,meteohub,2013-06-30 08:07:00,
2013-06-30 01:12:00,68.2,67.8,29.75,West,270,0.0,3.0,99,0.00,,,0.00,meteohub,2013-06-30 08:12:00,
2013-06-30 01:17:00,68.2,67.8,29.75,West,270,1.0,2.0,99,0.00,,,0.00,meteohub,2013-06-30 08:17:00,
2013-06-30 01:22:00,68.2,67.8,29.75,West,270,0.0,2.0,99,0.00,,,0.00,meteohub,2013-06-30 08:22:00,
2013-06-30 01:27:00,68.0,67.6,29.75,West,270,2.0,2.0,99,0.00,,,0.00,meteohub,2013-06-30 08:27:00,
2013-06-30 01:32:00,68.2,67.8,29.75,West,270,2.0,2.0,99,0.00,,,0.00,meteohub,2013-06-30 08:32:00,
2013-06-30 01:37:00,68.2,67.8,29.75,West,270,3.0,3.0,99,0.00,,,0.00,meteohub,2013-06-30 08:37:00,
2013-06-30 01:42:00,68.2,67.8,29.75,West,270,2.0,3.0,99,0.00,,,0.00,meteohub,2013-06-30 08:42:00,
2013-06-30 01:47:00,68.2,67.8,29.75,West,270,2.0,4.0,99,0.00,,,0.00,meteohub,2013-06-30 08:47:00,
2013-06-30 01:52:00,68.2,67.8,29.74,West,270,3.0,4.0,99,0.00,,,0.00,meteohub,2013-06-30 08:52:00,
2013-06-30 01:57:00,68.2,67.8,29.74,West,270,2.0,4.0,99,0.00,,,0.00,meteohub,2013-06-30 08:57:00,
2013-06-30 02:02:00,68.0,67.6,29.74,West,270,0.0,3.0,99,0.00,,,0.00,meteohub,2013-06-30 09:02:00,
2013-06-30 02:07:00,68.0,67.6,29.74,West,270,2.0,3.0,99,0.00,,,0.00,meteohub,2013-06-30 09:07:00,
2013-06-30 02:12:00,68.0,67.6,29.73,West,270,2.0,2.0,99,0.00,,,0.00,meteohub,2013-06-30 09:12:00,
2013-06-30 02:17:00,68.0,67.6,29.73,West,270,0.0,2.0,99,0.00,,,0.00,meteohub,2013-06-30 09:17:00,
2013-06-30 02:22:00,67.6,67.3,29.73,West,270,0.0,2.0,99,0.00,,,0.00,meteohub,2013-06-30 09:22:00,
2013-06-30 02:27:00,67.5,67.1,29.73,West,270,0.0,2.0,99,0.00,,,0.00,meteohub,2013-06-30 09:27:00,
2013-06-30 02:32:00,67.5,67.1,29.73,West,270,0.0,0.0,99,0.00,,,0.00,meteohub,2013-06-30 09:32:00,
2013-06-30 02:37:00,67.1,66.7,29.73,West,270,0.0,0.0,99,0.00,,,0.00,meteohub,2013-06-30 09:37:00,
2013-06-30 02:42:00,67.3,66.9,29.73,West,270,0.0,0.0,99,0.00,,,0.00,meteohub,2013-06-30 09:42:00,
2013-06-30 02:47:00,67.5,67.1,29.72,West,270,2.0,2.0,99,0.00,,,0.00,meteohub,2013-06-30 09:47:00,
2013-06-30 02:52:00,67.6,67.3,29.73,West,270,0.0,2.0,99,0.00,,,0.00,meteohub,2013-06-30 09:52:00,
2013-06-30 02:57:00,67.3,66.9,29.73,West,270,0.0,2.0,99,0.00,,,0.00,meteohub,2013-06-30 09:57:00,
2013-06-30 03:03:00,67.3,66.9,29.73,West,270,1.0,2.0,99,0.00,,,0.00,meteohub,2013-06-30 10:03:00,
2013-06-30 03:08:00,67.1,66.7,29.73,West,270,0.0,2.0,99,0.00,,,0.00,meteohub,2013-06-30 10:08:00,
2013-06-30 03:13:00,67.1,66.7,29.73,West,270,0.0,2.0,99,0.00,,,0.00,meteohub,2013-06-30 10:13:00,
2013-06-30 03:18:00,66.9,66.6,29.73,West,270,1.0,2.0,99,0.00,,,0.00,meteohub,2013-06-30 10:18:00,
2013-06-30 03:23:00,67.1,66.7,29.73,West,270,2.0,2.0,99,0.00,,,0.00,meteohub,2013-06-30 10:23:00,
2013-06-30 03:28:00,67.3,66.9,29.73,West,270,0.0,2.0,99,0.00,,,0.00,meteohub,2013-06-30 10:28:00,
2013-06-30 03:33:00,67.3,66.9,29.73,West,270,1.0,2.0,99,0.00,,,0.00,meteohub,2013-06-30 10:33:00,
2013-06-30 03:38:00,67.1,66.7,29.72,West,270,1.0,2.0,99,0.00,,,0.00,meteohub,2013-06-30 10:38:00,
2013-06-30 03:43:00,67.1,66.7,29.72,West,270,1.0,2.0,99,0.00,,,0.00,meteohub,2013-06-30 10:43:00,
2013-06-30 03:48:00,67.1,66.7,29.72,West,270,0.0,2.0,99,0.00,,,0.00,meteohub,2013-06-30 10:48:00,
2013-06-30 03:53:00,67.1,66.7,29.72,West,270,0.0,2.0,99,0.00,,,0.00,meteohub,2013-06-30 10:53:00,
2013-06-30 03:58:00,66.9,66.6,29.72,West,270,0.0,2.0,99,0.00,,,0.00,meteohub,2013-06-30 10:58:00,
2013-06-30 04:03:00,67.1,66.7,29.72,West,270,0.0,1.0,99,0.00,,,0.00,meteohub,2013-06-30 11:03:00,
2013-06-30 04:08:00,66.9,66.6,29.72,West,270,0.0,2.0,99,0.00,,,0.00,meteohub,2013-06-30 11:08:00,
2013-06-30 04:13:00,67.1,66.7,29.72,West,270,0.0,2.0,99,0.00,,,0.00,meteohub,2013-06-30 11:13:00,
2013-06-30 04:18:00,67.1,66.7,29.73,West,270,2.0,2.0,99,0.00,,,0.00,meteohub,2013-06-30 11:18:00,
2013-06-30 04:23:00,67.1,66.7,29.73,West,270,2.0,2.0,99,0.00,,,0.00,meteohub,2013-06-30 11:23:00,
2013-06-30 04:28:00,67.1,66.7,29.73,West,270,2.0,2.0,99,0.00,,,0.00,meteohub,2013-06-30 11:28:00,
2013-06-30 04:33:00,66.9,66.6,29.72,West,270,0.0,2.0,99,0.00,,,0.00,meteohub,2013-06-30 11:33:00,
2013-06-30 04:38:00,66.7,66.4,29.72,West,270,0.0,2.0,99,0.00,,,0.00,meteohub,2013-06-30 11:38:00,
2013-06-30 04:43:00,66.4,66.0,29.72,West,270,0.0,2.0,99,0.00,,,0.00,meteohub,2013-06-30 11:43:00,
2013-06-30 04:48:00,66.0,65.7,29.72,West,270,0.0,2.0,99,0.00,,,0.00,meteohub,2013-06-30 11:48:00,
2013-06-30 04:53:00,66.2,65.8,29.72,West,270,0.0,1.0,99,0.00,,,0.00,meteohub,2013-06-30 11:53:00,
2013-06-30 04:58:00,66.6,66.2,29.72,West,270,2.0,2.0,99,0.00,,,0.00,meteohub,2013-06-30 11:58:00,
2013-06-30 05:03:00,66.7,66.4,29.72,West,270,2.0,2.0,99,0.00,,,0.00,meteohub,2013-06-30 12:03:00,
2013-06-30 05:08:00,66.7,66.4,29.73,West,270,2.0,2.0,99,0.00,,,0.00,meteohub,2013-06-30 12:08:00,
2013-06-30 05:13:00,66.7,66.4,29.73,West,270,2.0,2.0,99,0.00,,,0.00,meteohub,2013-06-30 12:13:00,
2013-06-30 05:18:00,66.7,66.4,29.73,West,270,2.0,2.0,99,0.00,,,0.00,meteohub,2013-06-30 12:18:00,
2013-06-30 05:23:00,66.7,66.4,29.73,West,270,1.0,2.0,99,0.00,,,0.00,meteohub,2013-06-30 12:23:00,
2013-06-30 05:28:00,66.6,66.2,29.73,West,270,1.0,2.0,99,0.00,,,0.00,meteohub,2013-06-30 12:28:00,
2013-06-30 05:34:00,66.7,66.4,29.73,West,270,2.0,2.0,99,0.00,,,0.00,meteohub,2013-06-30 12:34:00,
2013-06-30 05:39:00,66.7,66.4,29.73,West,270,1.0,3.0,99,0.00,,,0.00,meteohub,2013-06-30 12:39:00,
2013-06-30 05:44:00,66.6,66.2,29.73,West,270,0.0,3.0,99,0.00,,,0.00,meteohub,2013-06-30 12:44:00,
2013-06-30 05:49:00,66.4,66.0,29.73,West,270,0.0,2.0,99,0.00,,,0.00,meteohub,2013-06-30 12:49:00,
2013-06-30 05:54:00,66.6,66.2,29.73,West,270,1.0,2.0,99,0.00,,,0.00,meteohub,2013-06-30 12:54:00,
2013-06-30 05:59:00,66.7,66.4,29.73,West,270,2.0,2.0,99,0.00,,,0.00,meteohub,2013-06-30 12:59:00,
2013-06-30 06:04:00,66.9,66.6,29.73,WNW,293,2.0,2.0,99,0.00,,,0.00,meteohub,2013-06-30 13:04:00,
2013-06-30 06:09:00,66.9,66.6,29.73,WNW,293,1.0,2.0,99,0.00,,,0.00,meteohub,2013-06-30 13:09:00,
2013-06-30 06:14:00,67.1,66.7,29.73,WNW,293,0.0,2.0,99,0.00,,,0.00,meteohub,2013-06-30 13:14:00,
2013-06-30 06:19:00,67.1,66.7,29.73,WNW,293,0.0,2.0,99,0.00,,,0.00,meteohub,2013-06-30 13:19:00,
2013-06-30 06:24:00,67.8,67.5,29.73,WNW,293,0.0,2.0,99,0.00,,,0.00,meteohub,2013-06-30 13:24:00,
2013-06-30 06:29:00,68.4,68.0,29.73,WNW,293,0.0,1.0,99,0.00,,,0.00,meteohub,2013-06-30 13:29:00,
2013-06-30 06:34:00,68.5,68.2,29.74,WNW,293,0.0,0.0,99,0.00,,,0.00,meteohub,2013-06-30 13:34:00,
2013-06-30 06:39:00,68.9,68.5,29.74,West,270,3.0,3.0,99,0.00,,,0.00,meteohub,2013-06-30 13:39:00,
2013-06-30 06:44:00,69.1,68.7,29.74,West,270,1.0,3.0,99,0.00,,,0.00,meteohub,2013-06-30 13:44:00,
2013-06-30 06:49:00,69.8,69.4,29.75,West,270,1.0,3.0,99,0.00,,,0.00,meteohub,2013-06-30 13:49:00,
2013-06-30 06:54:00,70.0,69.6,29.75,West,270,0.0,3.0,99,0.00,,,0.00,meteohub,2013-06-30 13:54:00,
2013-06-30 06:59:00,70.0,69.6,29.75,West,270,3.0,3.0,99,0.00,,,0.00,meteohub,2013-06-30 13:59:00,
2013-06-30 07:04:00,70.5,70.2,29.75,West,270,2.0,3.0,99,0.00,,,0.00,meteohub,2013-06-30 14:04:00,
2013-06-30 07:09:00,71.2,70.9,29.75,West,270,2.0,3.0,99,0.00,,,0.00,meteohub,2013-06-30 14:09:00,
2013-06-30 07:14:00,72.0,71.6,29.75,West,270,2.0,3.0,99,0.00,,,0.00,meteohub,2013-06-30 14:14:00,
2013-06-30 07:15:00,72.0,71.6,29.75,West,270,2.0,3.0,99,0.00,,,0.00,meteohub,2013-06-30 14:15:00,
2013-06-30 07:20:00,72.5,72.0,29.75,West,270,1.0,2.0,98,0.00,,,0.00,meteohub,2013-06-30 14:20:00,
2013-06-30 07:25:00,73.9,73.4,29.75,West,270,0.0,2.0,98,0.00,,,0.00,meteohub,2013-06-30 14:25:00,
2013-06-30 07:30:00,75.7,73.6,29.75,West,270,2.0,2.0,93,0.00,,,0.00,meteohub,2013-06-30 14:30:00,
2013-06-30 07:35:00,76.1,73.2,29.75,West,270,1.0,2.0,91,0.00,,,0.00,meteohub,2013-06-30 14:35:00,
2013-06-30 07:40:00,75.9,71.8,29.75,West,270,1.0,2.0,87,0.00,,,0.00,meteohub,2013-06-30 14:40:00,
2013-06-30 07:45:00,76.5,72.3,29.75,West,270,1.0,3.0,87,0.00,,,0.00,meteohub,2013-06-30 14:45:00,
2013-06-30 07:50:00,77.0,71.1,29.75,West,270,2.0,3.0,82,0.00,,,0.00,meteohub,2013-06-30 14:50:00,
2013-06-30 07:55:00,77.2,70.5,29.75,West,270,2.0,3.0,80,0.00,,,0.00,meteohub,2013-06-30 14:55:00,
2013-06-30 08:00:00,77.4,71.1,29.75,West,270,1.0,3.0,81,0.00,,,0.00,meteohub,2013-06-30 15:00:00,
2013-06-30 08:05:00,78.3,70.0,29.75,West,270,4.0,4.0,76,0.00,,,0.00,meteohub,2013-06-30 15:05:00,
2013-06-30 08:10:00,78.8,70.5,29.75,West,270,2.0,4.0,76,0.00,,,0.00,meteohub,2013-06-30 15:10:00,
2013-06-30 08:15:00,79.2,69.8,29.75,West,270,2.0,4.0,73,0.00,,,0.00,meteohub,2013-06-30 15:15:00,
2013-06-30 08:20:00,80.8,70.5,29.75,North,0,3.0,4.0,71,0.00,,,0.00,meteohub,2013-06-30 15:20:00,
2013-06-30 08:25:00,80.1,69.4,29.76,NW,315,4.0,4.0,70,0.00,,,0.00,meteohub,2013-06-30 15:25:00,
2013-06-30 08:30:00,80.6,71.1,29.76,North,0,3.0,4.0,73,0.00,,,0.00,meteohub,2013-06-30 15:30:00,
2013-06-30 08:35:00,80.8,69.6,29.76,NW,315,2.0,4.0,69,0.00,,,0.00,meteohub,2013-06-30 15:35:00,
2013-06-30 08:40:00,80.4,70.5,29.76,South,180,2.0,4.0,72,0.00,,,0.00,meteohub,2013-06-30 15:40:00,
2013-06-30 08:45:00,82.2,70.2,29.76,West,270,1.0,4.0,67,0.00,,,0.00,meteohub,2013-06-30 15:45:00,
2013-06-30 08:50:00,83.3,70.3,29.76,SE,135,2.0,4.0,65,0.00,,,0.00,meteohub,2013-06-30 15:50:00,
2013-06-30 08:55:00,84.2,70.2,29.76,NW,315,3.0,3.0,63,0.00,,,0.00,meteohub,2013-06-30 15:55:00,
2013-06-30 09:00:00,83.8,68.9,29.76,West,270,4.0,4.0,61,0.00,,,0.00,meteohub,2013-06-30 16:00:00,
2013-06-30 09:05:00,84.7,69.8,29.75,West,270,2.0,5.0,61,0.00,,,0.00,meteohub,2013-06-30 16:05:00,
2013-06-30 09:10:00,84.9,68.9,29.76,West,270,2.0,5.0,59,0.00,,,0.00,meteohub,2013-06-30 16:10:00,
2013-06-30 09:15:00,84.4,68.9,29.75,NW,315,3.0,5.0,60,0.00,,,0.00,meteohub,2013-06-30 16:15:00,
2013-06-30 09:20:00,84.6,69.1,29.75,NW,315,3.0,4.0,60,0.00,,,0.00,meteohub,2013-06-30 16:20:00,
2013-06-30 09:25:00,84.4,69.4,29.75,West,270,2.0,6.0,61,0.00,,,0.00,meteohub,2013-06-30 16:25:00,
2013-06-30 09:30:00,86.0,70.5,29.75,West,270,2.0,6.0,60,0.00,,,0.00,meteohub,2013-06-30 16:30:00,
2013-06-30 09:35:00,86.7,69.6,29.75,NW,315,4.0,6.0,57,0.00,,,0.00,meteohub,2013-06-30 16:35:00,
2013-06-30 09:40:00,85.6,70.2,29.75,NW,315,4.0,6.0,60,0.00,,,0.00,meteohub,2013-06-30 16:40:00,
2013-06-30 09:45:00,85.3,70.7,29.75,West,270,2.0,6.0,62,0.00,,,0.00,meteohub,2013-06-30 16:45:00,
2013-06-30 09:50:00,87.1,70.5,29.75,West,270,7.0,7.0,58,0.00,,,0.00,meteohub,2013-06-30 16:50:00,
2013-06-30 09:55:00,84.9,70.5,29.75,NW,315,8.0,8.0,62,0.00,,,0.00,meteohub,2013-06-30 16:55:00,
2013-06-30 10:00:00,84.6,70.5,29.75,West,270,8.0,8.0,63,0.00,,,0.00,meteohub,2013-06-30 17:00:00,
2013-06-30 10:06:00,84.6,70.5,29.75,West,270,6.0,8.0,63,0.00,,,0.00,meteohub,2013-06-30 17:06:00,
2013-06-30 10:11:00,84.9,70.9,29.76,West,270,3.0,8.0,63,0.00,,,0.00,meteohub,2013-06-30 17:11:00,
2013-06-30 10:16:00,85.3,69.8,29.76,West,270,4.0,8.0,60,0.00,,,0.00,meteohub,2013-06-30 17:16:00,
2013-06-30 10:21:00,85.6,70.2,29.76,NW,315,8.0,8.0,60,0.00,,,0.00,meteohub,2013-06-30 17:21:00,
2013-06-30 10:26:00,85.6,69.6,29.76,NW,315,8.0,8.0,59,0.00,,,0.00,meteohub,2013-06-30 17:26:00,
2013-06-30 10:31:00,85.5,70.0,29.76,NW,315,9.0,9.0,60,0.00,,,0.00,meteohub,2013-06-30 17:31:00,
2013-06-30 10:36:00,85.3,70.3,29.76,NW,315,6.0,9.0,61,0.00,,,0.00,meteohub,2013-06-30 17:36:00,
2013-06-30 10:41:00,84.9,68.9,29.76,NW,315,9.0,9.0,59,0.00,,,0.00,meteohub,2013-06-30 17:41:00,
2013-06-30 10:46:00,84.0,68.7,29.77,West,270,11.0,11.0,60,0.00,,,0.00,meteohub,2013-06-30 17:46:00,
2013-06-30 10:51:00,83.7,68.7,29.77,West,270,11.0,11.0,61,0.00,,,0.00,meteohub,2013-06-30 17:51:00,
2013-06-30 10:56:00,82.6,68.7,29.77,NW,315,10.0,11.0,63,0.00,,,0.00,meteohub,2013-06-30 17:56:00,
2013-06-30 11:01:00,82.6,69.1,29.77,WNW,293,8.0,12.0,64,0.00,,,0.00,meteohub,2013-06-30 18:01:00,
2013-06-30 11:06:00,82.6,69.1,29.78,NW,315,10.0,12.0,64,0.00,,,0.00,meteohub,2013-06-30 18:06:00,
2013-06-30 11:11:00,82.6,70.0,29.78,West,270,9.0,14.0,66,0.00,,,0.00,meteohub,2013-06-30 18:11:00,
2013-06-30 11:16:00,82.6,69.6,29.78,WNW,293,10.0,14.0,65,0.00,,,0.00,meteohub,2013-06-30 18:16:00,
2013-06-30 11:21:00,81.5,68.5,29.78,West,270,10.0,14.0,65,0.00,,,0.00,meteohub,2013-06-30 18:21:00,
2013-06-30 11:26:00,81.0,68.9,29.78,West,270,12.0,12.0,67,0.00,,,0.00,meteohub,2013-06-30 18:26:00,
2013-06-30 11:31:00,81.1,68.7,29.78,NW,315,8.0,13.0,66,0.00,,,0.00,meteohub,2013-06-30 18:31:00,
2013-06-30 11:36:00,81.1,67.8,29.78,NW,315,12.0,13.0,64,0.00,,,0.00,meteohub,2013-06-30 18:36:00,
2013-06-30 11:41:00,81.7,68.4,29.79,WNW,293,11.0,13.0,64,0.00,,,0.00,meteohub,2013-06-30 18:41:00,
2013-06-30 11:46:00,82.0,69.6,29.79,NW,315,11.0,14.0,66,0.00,,,0.00,meteohub,2013-06-30 18:46:00,
2013-06-30 11:51:00,82.9,68.5,29.79,NNW,338,11.0,14.0,62,0.00,,,0.00,meteohub,2013-06-30 18:51:00,
2013-06-30 11:56:00,83.1,68.4,29.79,West,270,10.0,14.0,61,0.00,,,0.00,meteohub,2013-06-30 18:56:00,
2013-06-30 12:01:00,81.5,69.1,29.79,NW,315,11.0,16.0,66,0.00,,,0.00,meteohub,2013-06-30 19:01:00,
2013-06-30 12:06:00,80.4,68.9,29.79,NW,315,10.0,16.0,68,0.00,,,0.00,meteohub,2013-06-30 19:06:00,
2013-06-30 12:11:00,79.5,68.9,29.79,West,270,11.0,17.0,70,0.00,,,0.00,meteohub,2013-06-30 19:11:00,
2013-06-30 12:16:00,78.8,68.2,29.79,NW,315,14.0,17.0,70,0.00,,,0.00,meteohub,2013-06-30 19:16:00,
2013-06-30 12:21:00,78.1,67.5,29.80,West,270,9.0,17.0,70,0.00,,,0.00,meteohub,2013-06-30 19:21:00,
2013-06-30 12:26:00,78.3,68.0,29.80,SW,225,11.0,16.0,71,0.00,,,0.00,meteohub,2013-06-30 19:26:00,
2013-06-30 12:31:00,78.4,68.7,29.80,West,270,11.0,16.0,72,0.00,,,0.00,meteohub,2013-06-30 19:31:00,
2013-06-30 12:36:00,78.6,68.0,29.81,SW,225,10.0,16.0,70,0.00,,,0.00,meteohub,2013-06-30 19:36:00,
2013-06-30 12:41:00,77.4,68.9,29.81,WSW,248,12.0,17.0,75,0.00,,,0.00,meteohub,2013-06-30 19:41:00,
2013-06-30 12:46:00,77.2,69.8,29.81,SSW,203,8.0,17.0,78,0.00,,,0.00,meteohub,2013-06-30 19:46:00,
2013-06-30 12:51:00,77.4,70.0,29.80,WNW,293,11.0,17.0,78,0.00,,,0.00,meteohub,2013-06-30 19:51:00,
2013-06-30 12:56:00,77.5,70.2,29.81,SW,225,8.0,17.0,78,0.00,,,0.00,meteohub,2013-06-30 19:56:00,
2013-06-30 13:01:00,77.9,69.8,29.81,SW,225,13.0,17.0,76,0.00,,,0.00,meteohub,2013-06-30 20:01:00,
2013-06-30 13:06:00,78.8,70.5,29.81,NW,315,10.0,17.0,76,0.00,,,0.00,meteohub,2013-06-30 20:06:00,
2013-06-30 13:11:00,79.7,70.3,29.81,West,270,11.0,16.0,73,0.00,,,0.00,meteohub,2013-06-30 20:11:00,
2013-06-30 13:16:00,78.8,69.8,29.81,NW,315,11.0,16.0,74,0.00,,,0.00,meteohub,2013-06-30 20:16:00,
2013-06-30 13:21:00,78.1,70.0,29.80,West,270,8.0,16.0,76,0.00,,,0.00,meteohub,2013-06-30 20:21:00,
2013-06-30 13:26:00,77.2,69.4,29.81,West,270,8.0,16.0,77,0.00,,,0.00,meteohub,2013-06-30 20:26:00,
2013-06-30 13:31:00,76.1,69.4,29.81,West,270,11.0,16.0,80,0.00,,,0.00,meteohub,2013-06-30 20:31:00,
2013-06-30 13:36:00,75.9,69.3,29.80,NW,315,14.0,16.0,80,0.00,,,0.00,meteohub,2013-06-30 20:36:00,
2013-06-30 13:41:00,74.8,69.3,29.81,West,270,15.0,15.0,83,0.00,,,0.00,meteohub,2013-06-30 20:41:00,
2013-06-30 13:46:00,74.7,69.1,29.81,NW,315,11.0,15.0,83,0.00,,,0.00,meteohub,2013-06-30 20:46:00,
2013-06-30 13:51:00,74.7,69.1,29.80,West,270,11.0,15.0,83,0.00,,,0.00,meteohub,2013-06-30 20:51:00,
2013-06-30 13:56:00,73.8,69.3,29.80,South,180,7.0,15.0,86,0.00,,,0.00,meteohub,2013-06-30 20:56:00,
2013-06-30 14:01:00,73.8,69.3,29.81,WNW,293,14.0,14.0,86,0.00,,,0.00,meteohub,2013-06-30 21:01:00,
2013-06-30 14:06:00,73.4,69.6,29.81,WNW,293,8.0,14.0,88,0.00,,,0.00,meteohub,2013-06-30 21:06:00,
2013-06-30 14:11:00,73.2,69.4,29.81,West,270,13.0,14.0,88,0.00,,,0.00,meteohub,2013-06-30 21:11:00,
2013-06-30 14:16:00,73.0,69.3,29.82,West,270,10.0,14.0,88,0.00,,,0.00,meteohub,2013-06-30 21:16:00,
2013-06-30 14:21:00,72.9,69.1,29.82,WSW,248,8.0,14.0,88,0.00,,,0.00,meteohub,2013-06-30 21:21:00,
2013-06-30 14:26:00,73.0,68.9,29.81,West,270,11.0,14.0,87,0.00,,,0.00,meteohub,2013-06-30 21:26:00,
2013-06-30 14:31:00,73.2,69.4,29.81,West,270,11.0,13.0,88,0.00,,,0.00,meteohub,2013-06-30 21:31:00,
2013-06-30 14:36:00,73.6,69.1,29.81,West,270,8.0,13.0,86,0.00,,,0.00,meteohub,2013-06-30 21:36:00,
2013-06-30 14:41:00,73.9,69.1,29.81,SSW,203,7.0,13.0,85,0.00,,,0.00,meteohub,2013-06-30 21:41:00,
2013-06-30 14:46:00,73.9,69.1,29.81,West,270,7.0,13.0,85,0.00,,,0.00,meteohub,2013-06-30 21:46:00,
2013-06-30 14:52:00,74.3,69.1,29.80,West,270,9.0,9.0,84,0.00,,,0.00,meteohub,2013-06-30 21:52:00,
2013-06-30 14:57:00,73.9,68.4,29.80,West,270,9.0,10.0,83,0.00,,,0.00,meteohub,2013-06-30 21:57:00,
2013-06-30 15:02:00,74.3,68.7,29.80,NW,315,8.0,10.0,83,0.00,,,0.00,meteohub,2013-06-30 22:02:00,
2013-06-30 15:07:00,74.8,68.9,29.80,NW,315,8.0,11.0,82,0.00,,,0.00,meteohub,2013-06-30 22:07:00,
2013-06-30 15:12:00,74.3,68.4,29.80,WNW,293,8.0,11.0,82,0.00,,,0.00,meteohub,2013-06-30 22:12:00,
2013-06-30 15:17:00,74.1,68.2,29.80,West,270,8.0,11.0,82,0.00,,,0.00,meteohub,2013-06-30 22:17:00,
2013-06-30 15:22:00,74.3,68.0,29.79,West,270,6.0,11.0,81,0.00,,,0.00,meteohub,2013-06-30 22:22:00,
2013-06-30 15:27:00,74.1,68.2,29.80,SSE,158,3.0,11.0,82,0.00,,,0.00,meteohub,2013-06-30 22:27:00,
2013-06-30 15:32:00,74.3,68.0,29.80,NW,315,7.0,9.0,81,0.00,,,0.00,meteohub,2013-06-30 22:32:00,
2013-06-30 15:37:00,74.1,68.0,29.79,NW,315,7.0,14.0,81,0.00,,,0.00,meteohub,2013-06-30 22:37:00,
2013-06-30 15:42:00,74.8,68.2,29.79,West,270,7.0,14.0,80,0.00,,,0.00,meteohub,2013-06-30 22:42:00,
2013-06-30 15:47:00,74.8,68.2,29.79,NW,315,6.0,14.0,80,0.00,,,0.00,meteohub,2013-06-30 22:47:00,
2013-06-30 15:52:00,74.8,68.2,29.79,West,270,5.0,11.0,80,0.00,,,0.00,meteohub,2013-06-30 22:52:00,
2013-06-30 15:57:00,75.7,68.4,29.78,West,270,5.0,11.0,78,0.00,,,0.00,meteohub,2013-06-30 22:57:00,
2013-06-30 16:02:00,76.5,68.0,29.78,West,270,4.0,11.0,75,0.00,,,0.00,meteohub,2013-06-30 23:02:00,
2013-06-30 16:07:00,77.2,68.2,29.77,West,270,4.0,9.0,74,0.00,,,0.00,meteohub,2013-06-30 23:07:00,
2013-06-30 16:12:00,78.3,68.5,29.77,NW,315,4.0,5.0,72,0.00,,,0.00,meteohub,2013-06-30 23:12:00,
2013-06-30 16:17:00,78.6,67.6,29.77,WSW,248,4.0,7.0,69,0.00,,,0.00,meteohub,2013-06-30 23:17:00,
2013-06-30 16:22:00,79.2,68.2,29.77,West,270,2.0,8.0,69,0.00,,,0.00,meteohub,2013-06-30 23:22:00,
2013-06-30 16:27:00,79.2,67.6,29.77,WNW,293,8.0,11.0,68,0.00,,,0.00,meteohub,2013-06-30 23:27:00,
2013-06-30 16:32:00,78.8,68.2,29.77,NW,315,11.0,11.0,70,0.00,,,0.00,meteohub,2013-06-30 23:32:00,
2013-06-30 16:37:00,77.7,68.7,29.76,SW,225,6.0,11.0,74,0.00,,,0.00,meteohub,2013-06-30 23:37:00,
2013-06-30 16:41:00,77.4,68.4,29.77,NW,315,8.0,11.0,74,0.00,,,0.00,meteohub,2013-06-30 23:41:00,
2013-06-30 16:47:00,76.8,68.4,29.77,NW,315,13.0,13.0,75,0.00,,,0.00,meteohub,2013-06-30 23:47:00,
2013-06-30 16:52:00,76.3,68.2,29.77,West,270,8.0,13.0,76,0.00,,,0.00,meteohub,2013-06-30 23:52:00,
2013-06-30 16:57:00,76.6,68.2,29.76,WNW,293,7.0,13.0,75,0.00,,,0.00,meteohub,2013-06-30 23:57:00,
2013-06-30 17:02:00,76.6,67.6,29.76,NW,315,7.0,13.0,74,0.00,,,0.00,meteohub,2013-07-01 00:02:00,
2013-06-30 17:07:00,77.2,67.8,29.76,West,270,6.0,12.0,73,0.00,,,0.00,meteohub,2013-07-01 00:07:00,
2013-06-30 17:12:00,77.7,68.0,29.76,West,270,9.0,12.0,72,0.00,,,0.00,meteohub,2013-07-01 00:12:00,
2013-06-30 17:17:00,77.7,67.6,29.76,West,270,7.0,12.0,71,0.00,,,0.00,meteohub,2013-07-01 00:17:00,
2013-06-30 17:22:00,77.5,67.8,29.76,NW,315,6.0,11.0,72,0.00,,,0.00,meteohub,2013-07-01 00:22:00,
2013-06-30 17:27:00,77.7,68.4,29.76,West,270,4.0,11.0,73,0.00,,,0.00,meteohub,2013-07-01 00:27:00,
2013-06-30 17:32:00,78.1,68.4,29.76,West,270,7.0,10.0,72,0.00,,,0.00,meteohub,2013-07-01 00:32:00,
2013-06-30 17:37:00,78.1,67.8,29.76,West,270,5.0,9.0,71,0.00,,,0.00,meteohub,2013-07-01 00:37:00,
2013-06-30 17:42:00,77.7,68.4,29.76,WNW,293,10.0,10.0,73,0.00,,,0.00,meteohub,2013-07-01 00:42:00,
2013-06-30 17:47:00,77.2,69.1,29.76,NW,315,8.0,10.0,76,0.00,,,0.00,meteohub,2013-07-01 00:47:00,
2013-06-30 17:52:00,76.6,68.9,29.77,West,270,5.0,11.0,77,0.00,,,0.00,meteohub,2013-07-01 00:52:00,
2013-06-30 17:57:00,76.6,68.5,29.76,West,270,9.0,11.0,76,0.00,,,0.00,meteohub,2013-07-01 00:57:00,
2013-06-30 18:02:00,76.3,68.9,29.76,West,270,10.0,11.0,78,0.00,,,0.00,meteohub,2013-07-01 01:02:00,
2013-06-30 18:07:00,76.1,68.7,29.76,West,270,6.0,10.0,78,0.00,,,0.00,meteohub,2013-07-01 01:07:00,
2013-06-30 18:12:00,75.7,68.7,29.76,West,270,8.0,10.0,79,0.00,,,0.00,meteohub,2013-07-01 01:12:00,
2013-06-30 18:17:00,75.4,68.4,29.76,NW,315,10.0,10.0,79,0.00,,,0.00,meteohub,2013-07-01 01:17:00,
2013-06-30 18:22:00,74.7,68.4,29.77,NW,315,10.0,11.0,81,0.00,,,0.00,meteohub,2013-07-01 01:22:00,
2013-06-30 18:27:00,74.5,68.5,29.76,NW,315,8.0,11.0,82,0.00,,,0.00,meteohub,2013-07-01 01:27:00,
2013-06-30 18:32:00,74.3,68.4,29.76,NW,315,9.0,11.0,82,0.00,,,0.00,meteohub,2013-07-01 01:32:00,
2013-06-30 18:37:00,74.3,68.4,29.76,West,270,7.0,10.0,82,0.00,,,0.00,meteohub,2013-07-01 01:37:00,
2013-06-30 18:42:00,73.9,68.4,29.76,NW,315,8.0,10.0,83,0.00,,,0.00,meteohub,2013-07-01 01:42:00,
2013-06-30 18:47:00,73.2,68.4,29.76,West,270,8.0,11.0,85,0.00,,,0.00,meteohub,2013-07-01 01:47:00,
2013-06-30 18:52:00,73.2,68.4,29.77,West,270,4.0,11.0,85,0.00,,,0.00,meteohub,2013-07-01 01:52:00,
2013-06-30 18:57:00,73.2,68.4,29.77,West,270,8.0,11.0,85,0.00,,,0.00,meteohub,2013-07-01 01:57:00,
2013-06-30 19:02:00,72.7,68.5,29.77,West,270,7.0,11.0,87,0.00,,,0.00,meteohub,2013-07-01 02:02:00,
2013-06-30 19:07:00,72.3,68.5,29.77,West,270,7.0,11.0,88,0.00,,,0.00,meteohub,2013-07-01 02:07:00,
2013-06-30 19:12:00,72.0,68.5,29.77,West,270,8.0,11.0,89,0.00,,,0.00,meteohub,2013-07-01 02:12:00,
2013-06-30 19:17:00,71.4,68.4,29.77,NW,315,5.0,11.0,90,0.00,,,0.00,meteohub,2013-07-01 02:17:00,
2013-06-30 19:22:00,71.2,68.5,29.77,NW,315,8.0,9.0,91,0.00,,,0.00,meteohub,2013-07-01 02:22:00,
2013-06-30 19:27:00,70.7,68.0,29.77,West,270,7.0,10.0,91,0.00,,,0.00,meteohub,2013-07-01 02:27:00,
2013-06-30 19:32:00,70.3,68.2,29.77,NW,315,7.0,10.0,93,0.00,,,0.00,meteohub,2013-07-01 02:32:00,
2013-06-30 19:37:00,70.2,68.0,29.78,West,270,4.0,10.0,93,0.00,,,0.00,meteohub,2013-07-01 02:37:00,
2013-06-30 19:42:00,70.0,68.2,29.78,West,270,4.0,8.0,94,0.00,,,0.00,meteohub,2013-07-01 02:42:00,
2013-06-30 19:47:00,69.6,68.2,29.78,West,270,5.0,8.0,95,0.00,,,0.00,meteohub,2013-07-01 02:47:00,
2013-06-30 19:52:00,69.4,68.0,29.78,West,270,5.0,8.0,95,0.00,,,0.00,meteohub,2013-07-01 02:52:00,
2013-06-30 19:57:00,69.3,68.0,29.78,West,270,6.0,8.0,96,0.00,,,0.00,meteohub,2013-07-01 02:57:00,
2013-06-30 20:02:00,69.3,68.0,29.78,West,270,4.0,10.0,96,0.00,,,0.00,meteohub,2013-07-01 03:02:00,
2013-06-30 20:07:00,69.1,67.8,29.78,NW,315,5.0,10.0,96,0.00,,,0.00,meteohub,2013-07-01 03:07:00,
2013-06-30 20:12:00,68.9,68.0,29.78,West,270,4.0,10.0,97,0.00,,,0.00,meteohub,2013-07-01 03:12:00,
2013-06-30 20:17:00,68.9,68.0,29.78,West,270,5.0,6.0,97,0.00,,,0.00,meteohub,2013-07-01 03:17:00,
2013-06-30 20:22:00,68.9,68.0,29.78,NW,315,5.0,7.0,97,0.00,,,0.00,meteohub,2013-07-01 03:22:00,
2013-06-30 20:27:00,68.9,68.0,29.79,WSW,248,5.0,7.0,97,0.00,,,0.00,meteohub,2013-07-01 03:27:00,
2013-06-30 20:32:00,68.7,67.8,29.79,West,270,5.0,8.0,97,0.00,,,0.00,meteohub,2013-07-01 03:32:00,
2013-06-30 20:37:00,68.7,67.8,29.79,West,270,6.0,8.0,97,0.00,,,0.00,meteohub,2013-07-01 03:37:00,
2013-06-30 20:42:00,68.7,67.8,29.79,West,270,4.0,8.0,97,0.00,,,0.00,meteohub,2013-07-01 03:42:00,
2013-06-30 20:47:00,68.5,68.0,29.79,NW,315,4.0,8.0,98,0.00,,,0.00,meteohub,2013-07-01 03:47:00,
2013-06-30 20:52:00,68.7,68.2,29.80,West,270,6.0,8.0,98,0.00,,,0.00,meteohub,2013-07-01 03:52:00,
2013-06-30 20:57:00,68.5,68.0,29.81,SW,225,5.0,7.0,98,0.00,,,0.00,meteohub,2013-07-01 03:57:00,
2013-06-30 21:01:00,68.5,68.0,29.80,West,270,6.0,8.0,98,0.00,,,0.00,meteohub,2013-07-01 04:01:00,
2013-06-30 21:06:00,68.4,67.8,29.81,West,270,4.0,8.0,98,0.00,,,0.00,meteohub,2013-07-01 04:06:00,
2013-06-30 21:11:00,68.4,67.8,29.80,West,270,5.0,8.0,98,0.00,,,0.00,meteohub,2013-07-01 04:11:00,
2013-06-30 21:16:00,68.4,67.8,29.80,West,270,6.0,8.0,98,0.00,,,0.00,meteohub,2013-07-01 04:16:00,
2013-06-30 21:21:00,68.4,67.8,29.80,South,180,5.0,8.0,98,0.00,,,0.00,meteohub,2013-07-01 04:21:00,
2013-06-30 21:26:00,68.4,67.8,29.80,West,270,4.0,6.0,98,0.00,,,0.00,meteohub,2013-07-01 04:26:00,
2013-06-30 21:31:00,68.4,68.0,29.81,West,270,4.0,6.0,99,0.00,,,0.00,meteohub,2013-07-01 04:31:00,
2013-06-30 21:36:00,68.4,68.0,29.81,West,270,4.0,6.0,99,0.00,,,0.00,meteohub,2013-07-01 04:36:00,
2013-06-30 21:41:00,68.2,67.8,29.81,West,270,4.0,6.0,99,0.00,,,0.00,meteohub,2013-07-01 04:41:00,
2013-06-30 21:46:00,68.2,67.8,29.81,West,270,2.0,6.0,99,0.00,,,0.00,meteohub,2013-07-01 04:46:00,
2013-06-30 21:51:00,68.2,67.8,29.82,West,270,2.0,6.0,99,0.00,,,0.00,meteohub,2013-07-01 04:51:00,
2013-06-30 21:56:00,68.2,67.8,29.82,West,270,4.0,6.0,99,0.00,,,0.00,meteohub,2013-07-01 04:56:00,
2013-06-30 22:01:00,68.0,67.6,29.83,West,270,4.0,6.0,99,0.00,,,0.00,meteohub,2013-07-01 05:01:00,
2013-06-30 22:06:00,68.0,67.6,29.83,West,270,4.0,4.0,99,0.00,,,0.00,meteohub,2013-07-01 05:06:00,
2013-06-30 22:11:00,68.0,67.6,29.83,West,270,4.0,5.0,99,0.00,,,0.00,meteohub,2013-07-01 05:11:00,
2013-06-30 22:16:00,68.0,67.6,29.83,West,270,2.0,5.0,99,0.00,,,0.00,meteohub,2013-07-01 05:16:00,
2013-06-30 22:21:00,67.8,67.5,29.83,West,270,2.0,5.0,99,0.00,,,0.00,meteohub,2013-07-01 05:21:00,
2013-06-30 22:26:00,68.0,67.6,29.83,West,270,2.0,4.0,99,0.00,,,0.00,meteohub,2013-07-01 05:26:00,
2013-06-30 22:31:00,67.8,67.5,29.83,West,270,2.0,5.0,99,0.00,,,0.00,meteohub,2013-07-01 05:31:00,
2013-06-30 22:36:00,67.8,67.5,29.83,West,270,3.0,5.0,99,0.00,,,0.00,meteohub,2013-07-01 05:36:00,
2013-06-30 22:41:00,67.8,67.5,29.82,West,270,3.0,4.0,99,0.00,,,0.00,meteohub,2013-07-01 05:41:00,
2013-06-30 22:46:00,67.6,67.3,29.83,West,270,3.0,4.0,99,0.00,,,0.00,meteohub,2013-07-01 05:46:00,
2013-06-30 22:51:00,67.6,67.3,29.82,West,270,2.0,4.0,99,0.00,,,0.00,meteohub,2013-07-01 05:51:00,
2013-06-30 22:56:00,67.5,67.1,29.83,West,270,3.0,4.0,99,0.00,,,0.00,meteohub,2013-07-01 05:56:00,
2013-06-30 23:01:00,67.5,67.1,29.83,West,270,2.0,4.0,99,0.00,,,0.00,meteohub,2013-07-01 06:01:00,
2013-06-30 23:06:00,67.3,66.9,29.83,West,270,1.0,4.0,99,0.00,,,0.00,meteohub,2013-07-01 06:06:00,
2013-06-30 23:11:00,67.3,66.9,29.83,West,270,0.0,4.0,99,0.00,,,0.00,meteohub,2013-07-01 06:11:00,
2013-06-30 23:16:00,67.1,66.7,29.83,West,270,2.0,3.0,99,0.00,,,0.00,meteohub,2013-07-01 06:16:00,
2013-06-30 23:21:00,67.1,66.7,29.83,West,270,2.0,2.0,99,0.00,,,0.00,meteohub,2013-07-01 06:21:00,
2013-06-30 23:27:00,67.1,66.7,29.83,West,270,2.0,3.0,99,0.00,,,0.00,meteohub,2013-07-01 06:27:00,
2013-06-30 23:32:00,67.1,66.7,29.83,West,270,2.0,3.0,99,0.00,,,0.00,meteohub,2013-07-01 06:32:00,
2013-06-30 23:37:00,67.1,66.7,29.83,West,270,4.0,4.0,99,0.00,,,0.00,meteohub,2013-07-01 06:37:00,
2013-06-30 23:42:00,66.9,66.6,29.83,West,270,2.0,4.0,99,0.00,,,0.00,meteohub,2013-07-01 06:42:00,
2013-06-30 23:46:00,66.9,66.6,29.83,West,270,2.0,4.0,99,0.00,,,0.00,meteohub,2013-07-01 06:46:00,
2013-06-30 23:52:00,66.9,66.6,29.83,West,270,2.0,4.0,99,0.00,,,0.00,meteohub,2013-07-01 06:52:00,
2013-06-30 23:57:00,66.9,66.6,29.83,West,270,2.0,3.0,99,0.00,,,0.00,meteohub,2013-07-01 06:57:00,